Terminal Aerodrome Forecast
Issued by NWS

Home | Current Version | Previous Version | Text Only | Print | Product List | Glossary On
Versions: 1 2 3 4 5 6 7 8 9 10 11 12 13 14 15 16 17 18 19 20 21 22 23 24 25 26 27 28 29 30 31 32 33 34
000
FTPA31 PHFO 221100
TAFMDY
TAF
PMDY 221139Z 2212/2312 04012KT P6SM FEW030 BKN050
     FM221800 07014G20KT P6SM SCT030 BKN060
     FM230000 11012G18KT P6SM SCT025 SCT060
      AMD LTD TO CLD AND WIND=

USA.gov is the U.S. government's official web portal to all federal, state and local government web resources and services.